Location: ??????
(56.0120°N, 39.1740°E)
Time: 07:41:14
(UTC+00:00)

NOSS 2-1 (C) - Pass Details

Date: 14 April 2026
Orbit: 374 x 1679 km, 63.3° (Epoch: 9 May)

Event Time Altitude Azimuth Distance (km) Brightness Sun altitude
Rises 19:01:44 0° 304° (NW) 2,297 7.8 -18.1°
Reaches altitude 10° 19:03:42 10° 295° (WNW) 1,499 6.5 -18.2°
Maximum altitude 19:06:41 35° 227° (SW) 773 4.0 -18.5°
Enters shadow 19:07:15 33° 205° (SSW) 832 3.9 -18.5°
